DIRPO EDAH-EDDH

Flight info

Callsign DIRPO
Flight time N/A
Altitude 4000
Route VFR
Aircraft BE58/L-C/L2

Departure

Time 2026-04-22 12:59
Airport Heringsdorf Airport (EDAH)

Arrival

Time N/A
Airport Hamburg Helmut Schmidt Airport (EDDH)
Time Latitude Longitude Altitude Speed Heading
2026-04-22 12:46 53.87845 14.14176 59 ft 0 kts 28°
2026-04-22 12:51 53.87847 14.14178 58 ft 2 kts 32°
2026-04-22 12:51 53.87842 14.14234 60 ft 11 kts 121°
2026-04-22 12:51 53.87806 14.14379 63 ft 14 kts 95°
2026-04-22 12:52 53.87797 14.14549 62 ft 15 kts 96°
2026-04-22 12:52 53.87788 14.14727 61 ft 16 kts 95°
2026-04-22 12:52 53.87778 14.14909 67 ft 16 kts 95°
2026-04-22 12:52 53.87769 14.15081 70 ft 14 kts 95°
2026-04-22 12:53 53.87762 14.15222 70 ft 5 kts 89°
2026-04-22 12:53 53.87787 14.15246 67 ft 4 kts 14°
2026-04-22 12:53 53.87793 14.15247 70 ft 0 kts 329°
2026-04-22 12:56 53.87796 14.15246 70 ft 2 kts
2026-04-22 12:57 53.87830 14.15268 70 ft 7 kts 15°
2026-04-22 12:57 53.87866 14.15269 71 ft 4 kts 296°
2026-04-22 12:57 53.87869 14.15253 67 ft 0 kts 287°
2026-04-22 12:58 53.87879 14.15189 65 ft 21 kts 285°
2026-04-22 12:59 53.88003 14.14440 72 ft 106 kts 285°
2026-04-22 12:59 53.88235 14.13050 370 ft 131 kts 288°
2026-04-22 12:59 53.88469 14.11610 1109 ft 122 kts 289°
2026-04-22 12:59 53.88742 14.10211 1537 ft 126 kts 295°
2026-04-22 13:00 53.89118 14.08859 1872 ft 128 kts 305°
2026-04-22 13:00 53.89596 14.07562 2088 ft 131 kts 308°
2026-04-22 13:00 53.90304 14.06605 2267 ft 135 kts 328°
2026-04-22 13:00 53.90990 14.05503 2481 ft 134 kts 308°
2026-04-22 13:01 53.91461 14.04194 2811 ft 131 kts 305°
2026-04-22 13:01 53.91917 14.02850 3139 ft 132 kts 304°
2026-04-22 13:01 53.92368 14.01485 3468 ft 132 kts 304°
2026-04-22 13:01 53.92808 14.00139 3789 ft 129 kts 304°
2026-04-22 13:02 53.93238 13.98821 4122 ft 128 kts 304°
2026-04-22 13:02 53.93668 13.97504 4450 ft 126 kts 304°
2026-04-22 13:02 53.94122 13.96119 4517 ft 142 kts 303°
2026-04-22 13:02 53.94611 13.94614 4517 ft 148 kts 302°
2026-04-22 13:03 53.95112 13.93070 4517 ft 150 kts 302°
2026-04-22 13:03 53.95621 13.91502 4515 ft 153 kts 302°
2026-04-22 13:03 53.96141 13.89896 4514 ft 157 kts 302°
2026-04-22 13:03 53.96672 13.88269 4516 ft 158 kts 302°
2026-04-22 13:04 53.97205 13.86629 4516 ft 159 kts 302°
2026-04-22 13:04 53.97566 13.85517 4518 ft 159 kts 302°
2026-04-22 13:04 53.98099 13.83868 4517 ft 159 kts 303°
2026-04-22 13:04 53.98628 13.82236 4515 ft 160 kts 303°
2026-04-22 13:05 53.99162 13.80583 4515 ft 160 kts 302°
2026-04-22 13:05 53.99697 13.78926 4502 ft 160 kts 303°
2026-04-22 13:05 54.00236 13.77262 4504 ft 162 kts 303°
2026-04-22 13:05 54.00776 13.75587 4504 ft 162 kts 303°
2026-04-22 13:06 54.01319 13.73908 4503 ft 162 kts 303°
2026-04-22 13:06 54.01861 13.72226 4505 ft 162 kts 302°
2026-04-22 13:06 54.02403 13.70543 4504 ft 162 kts 303°
2026-04-22 13:06 54.02943 13.68867 4503 ft 161 kts 302°
2026-04-22 13:07 54.03480 13.67197 4505 ft 161 kts 302°
2026-04-22 13:07 54.04019 13.65524 4503 ft 161 kts 302°
2026-04-22 13:07 54.04559 13.63840 4504 ft 162 kts 303°
2026-04-22 13:07 54.05094 13.62178 4506 ft 163 kts 302°
2026-04-22 13:08 54.05636 13.60489 4516 ft 163 kts 303°
2026-04-22 13:08 54.06178 13.58803 4514 ft 162 kts 302°
2026-04-22 13:08 54.06717 13.57116 4513 ft 163 kts 303°
2026-04-22 13:08 54.07262 13.55413 4516 ft 164 kts 303°
2026-04-22 13:09 54.07809 13.53702 4516 ft 165 kts 302°